Flag Weather past 2 weeks in Ilanz, Graubünden, Switzerland

Now
46 °F

Passing clouds.


Feels Like: 42 °F
Forecast: 42 / 57 °F
Wind: 6 mph from South

Location: Chur-Ems

Current Time: Nov 21, 2014 at 8:25:19 PM

Latest Report: Nov 21, 2014 at 7:00 PM


Visibility: 13 mi

Pressure: 30.19 "Hg

Humidity: 73%

Dew point: 37 °F

Location of IlanzLocation

Historic Weather in Ilanz — Graph

°F

Ilanz temperature yesterday

Maximum temperature yesterday: 52 °F (at 2:00 PM)
Minimum temperature yesterday: 37 °F (at 4:00 AM)
Average temperature yesterday: 43 °F

Past Weeks' High & Low Weather Summary

 TemperatureHumidityPressure
High65 °F (Nov 11, 3:00 PM)97% (Nov 6, 8:00 PM)30.36 "Hg (Nov 6, 8:00 PM)
Low36 °F (Nov 7, 4:00 AM)38% (Nov 11, 3:00 PM)29.56 "Hg (Nov 15, 8:00 PM)
Average47 °F75%29.88 "Hg
* Reported Nov 6 7:00 PM — Nov 21 7:00 PM, Ilanz, Weather by CustomWeather, © 2014

Note: Actual official high and low records may vary slightly from our data, if they occured in-between our weather recording intervals... More about our weather records

Advertising

Ilanz weather history for previous 24 hours

 ConditionsComfort  
Time TempWeatherWind HumidityBarometerVisibility
7:00 PM
Nov 21
46 °FPassing clouds.6 mph73%30.19 "Hg12 mi
6:00 PM45 °FCool.2 mph79%30.19 "HgN/A
5:00 PM48 °FCool.1 mph70%30.16 "HgN/A
4:00 PM51 °FPartly sunny.7 mph63%30.14 "Hg12 mi
3:00 PM54 °FCool.9 mph49%30.11 "HgN/A
2:00 PM56 °FRefreshingly cool.9 mph46%30.11 "HgN/A
1:00 PM54 °FScattered clouds.3 mph46%30.12 "Hg12 mi
12:00 PM52 °FCool.5 mph47%30.14 "HgN/A
11:00 AM49 °FCool.5 mph56%30.19 "HgN/A
10:00 AM45 °FOvercast.2 mph65%30.22 "Hg12 mi
9:00 AM40 °FChilly.1 mph82%30.25 "HgN/A
8:00 AM38 °FChilly.No wind81%30.26 "HgN/A
7:00 AM40 °FPassing clouds.2 mph72%30.24 "Hg12 mi
6:00 AM41 °FQuite cool.6 mph72%30.23 "HgN/A
5:00 AM41 °FQuite cool.2 mph75%30.24 "HgN/A
3:00 AM42 °FQuite cool.3 mph73%30.26 "HgN/A
2:00 AM42 °FQuite cool.3 mph68%30.25 "HgN/A
1:00 AM42 °FPassing clouds.3 mph71%30.25 "Hg12 mi
12:00 AM43 °FQuite cool.5 mph73%30.27 "HgN/A
11:00 PM
Nov 20
43 °FQuite cool.1 mph75%30.28 "HgN/A
10:00 PM43 °FOvercast.1 mph78%30.28 "Hg12 mi
9:00 PM42 °FQuite cool.No wind83%30.28 "HgN/A
8:00 PM43 °FQuite cool.No wind78%30.27 "HgN/A
Weather by CustomWeather, © 2014

See weather overviewHow to use our weather pages